Regional Weather Roundup
Issued by NWS

Home | Current Version | Previous Version | Text Only | Print | Product List | Glossary On
Versions: 1 2 3 4 5 6 7 8 9 10 11 12 13 14 15 16 17 18 19 20 21 22 23 24 25 26 27 28 29 30 31 32 33 34 35 36 37 38 39 40 41 42 43 44 45 46 47 48 49 50
000
ASUS45 KSLC 060610
RWRUT

UTAH REGIONAL WEATHER ROUNDUP
NATIONAL WEATHER SERVICE SALT LAKE CITY UT
1200 AM MDT WED MAY 06 2015

UTZ001>011-023>025-060700-

NORTHERN UTAH

CITY           SKY/WX    TMP DP  RH WIND       PRES   REMARKS
HILL AFB       LGT RAIN  56  51  84 S15       29.83R
LOGAN          CLEAR     52  48  86 CALM      29.81S
OGDEN          CLOUDY    58  44  60 S7        29.82R
PROVO AIRPORT  CLOUDY    54  46  76 W12       29.87R
SALT LAKE CITY CLOUDY    56  49  77 SE9       29.83S
VERNAL         LGT RAIN  52  48  86 CALM      29.82S
WENDOVER       CLOUDY    59  45  58 SW3       29.85R
HEBER CITY     DRIZZLE   50  45  81 CALM      29.87S
WEST JORDAN    CLOUDY    54  50  87 S6        29.85F

$$

UTZ012>022-026-027-060700-

SOUTHERN/CENTRAL UTAH

CITY           SKY/WX    TMP DP  RH WIND       PRES   REMARKS
BLANDING       CLOUDY    50  47  89 CALM      29.96S
BRYCE CANYON   CLOUDY    42  38  85 NW5       29.99F
CEDAR CITY     CLOUDY    47  44  90 S7        29.94R
DELTA          CLOUDY    51  49  93 CALM      29.90S
HANKSVILLE     CLOUDY    54  48  82 CALM      29.85R
MILFORD        CLOUDY    51  47  86 S10       29.90S
MOAB/CYNLANDS  CLOUDY    55  53  93 CALM      29.80S
PRICE          CLOUDY    51  47  86 E6        29.86R
ST GEORGE      CLOUDY    63  46  55 W6        29.93R
KANAB          CLOUDY    52  45  76 SW5       29.96R

$$

REGIONAL REPORTS     COLORADO/ARIZONA

CITY           SKY/WX    TMP DP  RH WIND       PRES   REMARKS
CRAIG, CO      CLOUDY    51  46  83 W7        29.82F
GRAND JUNCTION CLOUDY    52  51  97 NW5       29.82S
RIFLE          LGT RAIN  49  46  90 E6        29.84S
MONTROSE       CLOUDY    51  49  92 SE6       29.87S
CORTEZ         MOCLDY    48  46  93 CALM      29.91S
PAGE, AZ       LGT RAIN  59  47  64 SW6       29.89F
GRAND CANYON   PTCLDY    45  40  82 SW7       30.02S
KINGMAN        PTCLDY    62  36  37 S10       29.89S
FLAGSTAFF      CLEAR     42  42 100 CALM      30.05S

$$

REGIONAL REPORTS    NEVADA/IDAHO/WYOMING

CITY           SKY/WX    TMP DP  RH WIND       PRES   REMARKS
LAS VEGAS, NV  MOCLDY    75  35  23 S18       29.72R
ELY            CLOUDY    51  38  60 S12       29.92R
ELKO           PTCLDY    55  34  45 NE14      29.83R
POCATELLO, ID  CLEAR     56  25  30 SW16      29.81R
BURLEY         PTCLDY    52  23  32 SW14      29.81S
EVANSTON, WY   CLOUDY    44  42  93 SW9       29.90S
ROCK SPRINGS   CLOUDY    48  41  76 W10       29.84S
KEMMERER       CLOUDY    45  41  87 CALM      29.90R

$$


USA.gov is the U.S. government's official web portal to all federal, state and local government web resources and services.